Home > Weather > Whistler > Past weeks

Flag for Canada Past Weather in Whistler, British Columbia, Canada — Yesterday and Last 2 Weeks

Now
60 °F

Cool.


Feels Like: 60 °F
Forecast: 50 / 62 °F
Wind: 2 mph from Southeast

Location: Squamish Airport

Current Time: Jun 24, 2016 at 10:24:19 PM

Latest Report: Jun 24, 2016 at 9:00 PM


Visibility: N/A

Pressure: 30.19 "Hg (27.88 "Hg at 674m altitude)

Humidity: 75%

Dew Point: 53 °F

Location of WhistlerLocation

Past Weather in Whistler — Graph

°F

Whistler Temperature Yesterday

Maximum temperature yesterday: 66 °F (at 4:00 PM)
Minimum temperature yesterday: 53 °F (at 3:00 AM)
Average temperature yesterday: 59 °F

High & Low Weather Summary for the Past Weeks

 TemperatureHumidityPressure
High76 °F (Jun 20, 6:00 PM)100% (Jun 14, 7:00 AM)30.40 "Hg (Jun 14, 7:00 AM)
Low40 °F (Jun 16, 5:00 AM)32% (Jun 17, 4:00 PM)29.83 "Hg (Jun 14, 4:00 AM)
Average56 °F78%30.06 "Hg
* Reported Jun 9 9:00 PM — Jun 24 9:00 PM, Whistler, Weather by CustomWeather, © 2016

Note: Actual official high and low records may vary slightly from our data, if they occured in-between our weather recording intervals... More about our weather records

Advertising

Whistler Weather History for the Previous 24 Hours

Scroll right to see more
 ConditionsComfort  
Time TempWeatherWind HumidityBarometerVisibility
9:00 PM
Fri, Jun 24
60 °FCool.2 mph75%30.19 "HgN/A
8:00 PM62 °FCool.6 mph72%30.18 "HgN/A
7:00 PM62 °FCool.5 mph68%30.16 "HgN/A
6:00 PM62 °FMild.6 mph69%30.16 "HgN/A
5:00 PM63 °FMild.8 mph65%30.16 "HgN/A
4:00 PM62 °FCool.8 mph68%30.16 "HgN/A
3:00 PM60 °FCool.9 mph74%30.15 "HgN/A
2:00 PM61 °FCool.9 mph70%30.14 "HgN/A
1:00 PM60 °FCool.8 mph74%30.13 "HgN/A
12:00 PM60 °FCool.8 mph74%30.11 "HgN/A
11:00 AM60 °FCool.6 mph77%30.10 "HgN/A
10:00 AM57 °FCool.5 mph84%30.09 "HgN/A
9:00 AM57 °FCool.5 mph86%30.08 "HgN/A
8:00 AM56 °FCool.1 mph94%30.07 "HgN/A
7:00 AM55 °FCool.No wind95%30.06 "HgN/A
6:00 AM54 °FCool.1 mph96%30.05 "HgN/A
5:00 AM55 °FCool.No wind95%30.04 "HgN/A
4:00 AM55 °FCool.1 mph96%30.02 "HgN/A
3:00 AM56 °FCool.1 mph95%30.01 "HgN/A
2:00 AM56 °FCool.1 mph89%30.01 "HgN/A
1:00 AM56 °FCool.No wind88%30.01 "HgN/A
12:00 AM57 °FCool.1 mph93%30.00 "HgN/A
11:00 PM
Thu, Jun 23
58 °FCool.1 mph94%29.99 "HgN/A
10:00 PM58 °FCool.No wind94%29.98 "HgN/A
Weather by CustomWeather, © 2016

See weather overviewHow to use our weather pages